DW9313 Weather Reports


Display with metric or nautical units.
time (UTC)temp
F
wind
direction
speed
MPH
gust
MPH
rain 1hr
in
rain 24hr
in
rain mn
in
humidity
%
barometer
mb
20260902110224 67 316 2.0 6.0 0.00 0.49 0.48 94 1011.4
20260902105725 67 274 0.0 6.0 0.00 0.49 0.48 95 1011.3
20260902105224 67 281 1.0 6.0 0.00 0.49 0.48 95 1011.4
20260902104225 66 338 0.0 2.0 0.00 0.49 0.48 96 1011.4
20260902103225 66 292 2.0 8.0 0.00 0.49 0.48 96 1011.4
20260902102725 66 296 1.0 6.0 0.00 0.49 0.48 96 1011.3
20260902101724 66 296 1.0 6.0 0.00 0.49 0.48 97 1011.2
20260902100724 66 297 1.0 6.0 0.00 0.49 0.48 98 1011.2
20260902095225 65 292 0.0 5.0 0.00 0.49 0.48 98 1011.1
20260902094724 65 315 0.0 2.0 0.00 0.49 0.48 98 1011.2
20260902094225 65 318 0.0 2.0 0.00 0.49 0.48 98 1011.2
20260902093726 65 281 0.0 2.0 0.00 0.49 0.48 98 1011.3
20260902093224 65 332 0.0 2.0 0.00 0.49 0.48 98 1011.2
20260902092726 65 312 0.0 6.0 0.00 0.49 0.48 98 1011.3
20260902092225 65 305 1.0 2.0 0.00 0.49 0.48 98 1011.3
20260902091725 65 298 1.0 6.0 0.00 0.49 0.48 98 1011.3
20260902091225 65 278 0.0 2.0 0.00 0.49 0.48 98 1011.1
20260902090726 65 305 0.0 2.0 0.00 0.49 0.48 98 1011.2
20260902090225 65 287 1.0 5.0 0.00 0.49 0.48 98 1011.1
20260902085726 65 294 1.0 5.0 0.00 0.49 0.48 98 1011.1
20260902085225 65 353 0.0 2.0 0.00 0.49 0.48 98 1011.1
20260902084725 64 205 0.0 3.0 0.00 0.49 0.48 98 1011.2
20260902084227 64 306 1.0 3.0 0.00 0.49 0.48 98 1011.2
20260902083726 64 296 1.0 6.0 0.00 0.49 0.48 98 1011.1
20260902083226 64 298 0.0 3.0 0.00 0.49 0.48 98 1011.1
20260902082725 64 271 0.0 5.0 0.00 0.49 0.48 98 1011.1
20260902082225 64 276 0.0 1.0 0.00 0.49 0.48 98 1011.0
20260902081725 64 321 1.0 5.0 0.00 0.49 0.48 98 1010.9
20260902081226 64 264 1.0 7.0 0.00 0.49 0.48 98 1011.0
20260902080725 64 193 1.0 6.0 0.00 0.49 0.48 98 1011.0
20260902080226 64 292 1.0 3.0 0.00 0.49 0.48 98 1011.0
20260902075727 64 300 1.0 6.0 0.00 0.49 0.48 98 1010.9
20260902075227 64 195 0.0 1.0 0.00 0.49 0.48 98 1010.9
20260902074726 64 299 1.0 3.0 0.00 0.49 0.48 98 1010.8
20260902073725 64 163 0.0 2.0 0.00 0.49 0.48 98 1010.8
20260902073226 64 287 0.0 2.0 0.00 0.49 0.48 98 1010.7
20260902072726 64 295 1.0 6.0 0.00 0.49 0.48 98 1010.8
20260902071727 64 307 0.0 2.0 0.00 0.49 0.48 98 1010.8
20260902071227 64 212 0.0 3.0 0.00 0.49 0.48 98 1010.7
20260902065726 64 181 0.0 1.0 0.01 0.49 0.48 98 1010.7
20260902065228 64 227 0.0 3.0 0.01 0.49 0.48 98 1010.6
20260902064727 64 0 0.0 2.0 0.01 0.49 0.48 98 1010.5
20260902064227 64 318 2.0 6.0 0.02 0.49 0.48 98 1010.5
20260902063226 63 8 2.0 8.0 0.02 0.49 0.48 98 1010.5
20260902062727 63 193 2.0 6.0 0.02 0.49 0.48 99 1010.5
20260902062226 63 191 2.0 9.0 0.03 0.49 0.48 98 1010.5
20260902060727 63 158 1.0 9.0 0.06 0.49 0.48 98 1010.7
20260902060227 62 175 5.0 10.0 0.07 0.49 0.48 98 1010.6
20260902055727 62 222 3.0 8.0 0.07 0.48 0.47 98 1010.8
20260902055227 62 189 3.0 8.0 0.08 0.48 0.47 98 1010.8
20260902054727 62 178 4.0 13.0 0.09 0.48 0.47 98 1010.7
20260902054227 62 180 2.0 8.0 0.11 0.47 0.46 98 1010.8
20260902053727 62 170 5.0 9.0 0.12 0.47 0.46 98 1011.0
20260902053227 62 163 6.0 10.0 0.12 0.46 0.46 98 1011.0
20260902052727 61 151 6.0 12.0 0.13 0.46 0.46 98 1011.1
20260902052228 61 159 6.0 9.0 0.13 0.46 0.45 98 1011.3
20260902051727 61 173 7.0 12.0 0.12 0.44 0.43 98 1011.3
20260902051226 61 171 6.0 12.0 0.11 0.43 0.43 98 1011.5
20260902050728 61 143 6.0 10.0 0.12 0.43 0.43 98 1011.5
20260902050229 61 150 5.0 12.0 0.11 0.42 0.41 98 1011.7
20260902045727 61 152 6.0 12.0 0.10 0.41 0.40 98 1011.7
20260902045228 61 148 7.0 13.0 0.11 0.40 0.39 98 1011.9
20260902044727 61 169 7.0 13.0 0.10 0.39 0.38 98 1012.0
20260902044228 61 152 7.0 13.0 0.09 0.36 0.35 98 1012.0
20260902043728 61 151 5.0 12.0 0.09 0.35 0.35 98 1012.2
20260902043228 61 150 6.0 13.0 0.08 0.35 0.34 97 1012.1
20260902042729 61 163 6.0 10.0 0.08 0.34 0.33 98 1012.0
20260902042228 61 149 7.0 13.0 0.08 0.33 0.32 98 1012.1
20260902041728 61 161 6.0 13.0 0.07 0.32 0.31 97 1012.2
20260902041227 61 164 7.0 14.0 0.08 0.32 0.31 97 1012.4
20260902040728 61 166 7.0 13.0 0.08 0.31 0.31 97 1012.6
20260902040228 61 147 6.0 12.0 0.08 0.31 0.30 97 1012.7
20260902035728 61 163 6.0 12.0 0.09 0.31 0.30 97 1012.7
20260902035229 61 153 6.0 13.0 0.08 0.29 0.28 97 1012.8
20260902034727 61 178 6.0 15.0 0.08 0.28 0.28 97 1012.9
20260902034228 61 151 5.0 10.0 0.08 0.28 0.27 97 1012.8
20260902033228 60 177 3.0 8.0 0.09 0.27 0.26 97 1013.2
20260902032728 60 165 5.0 9.0 0.09 0.26 0.25 97 1013.2
20260902032228 60 178 4.0 14.0 0.08 0.25 0.24 97 1013.4
20260902031730 60 159 6.0 12.0 0.09 0.25 0.24 97 1013.6
20260902031228 60 165 3.0 8.0 0.08 0.24 0.24 97 1013.6
20260902030728 60 185 2.0 6.0 0.08 0.24 0.23 96 1013.7
20260902030228 60 177 3.0 8.0 0.08 0.23 0.22 96 1013.8
20260902025729 60 179 2.0 6.0 0.08 0.22 0.21 96 1013.8
20260902025229 60 177 6.0 12.0 0.08 0.21 0.20 96 1013.9
20260902024728 60 177 3.0 10.0 0.08 0.20 0.20 97 1014.1
20260902023728 60 147 3.0 6.0 0.06 0.18 0.17 96 1014.1
20260902022728 60 136 1.0 3.0 0.06 0.17 0.17 96 1014.3
20260902022229 60 147 2.0 6.0 0.06 0.17 0.17 95 1014.3
20260902021729 60 169 3.0 6.0 0.05 0.17 0.16 95 1014.4
20260902021228 60 149 2.0 6.0 0.06 0.17 0.16 95 1014.5
20260902020728 60 159 3.0 6.0 0.05 0.16 0.15 95 1014.5
20260902020229 60 156 2.0 6.0 0.05 0.15 0.14 95 1014.6
20260902015729 61 166 3.0 6.0 0.04 0.14 0.13 95 1014.8
20260902015229 61 154 5.0 9.0 0.04 0.13 0.13 95 1014.9
20260902014730 61 165 2.0 5.0 0.03 0.13 0.12 96 1014.9
20260902013729 61 178 1.0 3.0 0.04 0.13 0.12 95 1015.1
20260902013228 61 134 1.0 8.0 0.05 0.13 0.12 96 1014.9
20260902012729 61 167 2.0 7.0 0.05 0.12 0.11 96 1015.0
20260902012228 61 171 2.0 6.0 0.05 0.12 0.11 95 1015.1
20260902011229 61 181 2.0 7.0 0.06 0.11 0.10 95 1015.3
20260902010229 61 200 3.0 6.0 0.06 0.10 0.09 95 1015.4
20260902005729 61 187 2.0 6.0 0.06 0.10 0.09 95 1015.4
20260902004731 61 178 5.0 10.0 0.07 0.09 0.09 95 1015.5
20260902004229 61 180 4.0 8.0 0.07 0.09 0.08 95 1015.6
20260902003729 61 168 3.0 9.0 0.08 0.09 0.08 95 1015.6
20260902003231 61 171 3.0 6.0 0.07 0.08 0.07 95 1015.6
20260902002730 61 141 1.0 5.0 0.06 0.07 0.06 95 1015.7
20260902002229 61 152 1.0 3.0 0.06 0.07 0.06 95 1015.8
20260902001729 61 152 1.0 3.0 0.06 0.06 0.06 95 1015.8
20260902001230 61 185 2.0 5.0 0.05 0.06 0.05 94 1015.9
20260902000745 61 168 2.0 7.0 0.05 0.06 0.05 94 1015.9
20260901235731 61 171 3.0 7.0 0.03 0.05 0.04 94 1015.9
20260901234731 61 177 1.0 6.0 0.02 0.03 0.02 93 1016.2
20260901234231 61 173 3.0 6.0 0.01 0.02 0.02 93 1016.3
20260901233729 61 169 3.0 6.0 0.00 0.02 0.01 93 1016.2
20260901232731 61 161 3.0 6.0 0.00 0.01 0.00 92 1016.3
20260901231730 61 151 1.0 3.0 0.00 0.01 0.00 91 1016.7
20260901230230 61 164 0.0 3.0 0.00 0.01 0.00 90 1016.8
20260901225731 61 153 0.0 1.0 0.00 0.01 0.01 90 1016.9
20260901225232 61 131 0.0 3.0 0.00 0.01 0.01 91 1016.8
20260901224230 61 137 1.0 2.0 0.00 0.01 0.01 90 1016.8
20260901223730 61 139 0.0 1.0 0.00 0.01 0.01 90 1016.9
20260901223231 61 137 0.0 1.0 0.00 0.01 0.01 90 1016.9
20260901222730 61 140 0.0 1.0 0.00 0.01 0.01 89 1017.0
20260901222230 61 136 0.0 0.0 0.00 0.01 0.01 89 1017.0
20260901221730 61 145 0.0 1.0 0.00 0.01 0.01 89 1017.0
20260901221232 61 266 0.0 0.0 0.00 0.01 0.01 89 1017.1
20260901220730 61 266 0.0 0.0 0.00 0.01 0.01 89 1017.0
20260901215731 61 266 0.0 0.0 0.00 0.01 0.01 88 1017.0
20260901215231 61 266 0.0 0.0 0.00 0.01 0.01 88 1017.1
20260901214732 61 266 0.0 0.0 0.00 0.01 0.01 88 1017.1
20260901214230 61 266 0.0 1.0 0.00 0.01 0.01 87 1017.1
20260901213731 62 317 0.0 2.0 0.00 0.01 0.01 87 1017.2
20260901213230 62 330 0.0 3.0 0.00 0.01 0.01 86 1017.3
20260901212731 61 309 1.0 3.0 0.00 0.01 0.01 86 1017.3
20260901211733 61 309 1.0 2.0 0.00 0.01 0.01 85 1017.2
20260901211231 61 300 1.0 2.0 0.00 0.01 0.01 86 1017.1
20260901210731 61 300 1.0 3.0 0.00 0.01 0.01 86 1017.1
20260901210232 61 295 2.0 6.0 0.00 0.01 0.01 86 1017.1
20260901205733 61 313 1.0 3.0 0.00 0.01 0.01 87 1017.1
20260901205232 61 315 0.0 3.0 0.00 0.01 0.01 87 1017.1
20260901204731 61 301 2.0 6.0 0.00 0.01 0.01 86 1017.2
20260901203730 61 320 1.0 5.0 0.00 0.01 0.01 87 1017.0
20260901203231 61 305 1.0 6.0 0.00 0.01 0.01 88 1016.9
20260901202732 61 325 0.0 3.0 0.00 0.01 0.01 90 1016.9
20260901202231 62 305 0.0 2.0 0.00 0.01 0.01 90 1016.9
20260901201732 62 313 1.0 3.0 0.00 0.01 0.01 91 1016.9
20260901201231 62 314 1.0 3.0 0.00 0.01 0.01 91 1017.0
20260901200731 62 290 2.0 7.0 0.00 0.01 0.01 91 1017.1
20260901200231 62 313 1.0 6.0 0.00 0.01 0.01 91 1016.9
20260901195732 62 291 1.0 5.0 0.00 0.01 0.01 91 1017.0
20260901195232 63 356 1.0 3.0 0.00 0.01 0.01 91 1017.0
20260901194231 63 231 1.0 3.0 0.00 0.01 0.01 91 1017.0
20260901193732 63 127 0.0 2.0 0.00 0.01 0.01 91 1016.9
20260901193231 63 175 1.0 2.0 0.00 0.01 0.01 91 1017.0
20260901192732 63 328 1.0 5.0 0.00 0.01 0.01 91 1017.0
20260901192232 63 291 1.0 3.0 0.00 0.01 0.01 91 1016.9
20260901191732 63 302 0.0 3.0 0.00 0.01 0.01 91 1016.8
20260901191231 63 313 1.0 2.0 0.00 0.01 0.01 91 1016.8
20260901190732 63 303 1.0 6.0 0.00 0.01 0.01 91 1016.9
20260901190233 63 299 1.0 7.0 0.00 0.01 0.01 91 1016.9
20260901185732 63 305 1.0 2.0 0.00 0.01 0.01 90 1016.8
20260901185232 63 334 0.0 2.0 0.00 0.01 0.01 90 1016.8
20260901184733 63 241 1.0 2.0 0.00 0.01 0.01 90 1016.8
20260901184232 63 300 1.0 3.0 0.00 0.01 0.01 89 1016.9
20260901183733 63 295 1.0 3.0 0.00 0.01 0.01 89 1016.9
20260901183232 63 296 0.0 5.0 0.00 0.01 0.01 89 1016.9
20260901182732 64 313 0.0 2.0 0.00 0.01 0.01 89 1017.0
20260901181232 64 310 0.0 5.0 0.00 0.01 0.01 88 1017.0
20260901180734 64 298 2.0 5.0 0.00 0.01 0.01 88 1017.0
20260901180232 64 297 1.0 5.0 0.00 0.01 0.01 88 1017.0
20260901175733 64 279 2.0 6.0 0.00 0.01 0.01 87 1017.0
20260901175232 64 293 2.0 6.0 0.00 0.01 0.01 87 1017.1
20260901174733 64 306 3.0 6.0 0.00 0.01 0.01 86 1017.1
20260901174233 64 303 3.0 6.0 0.00 0.01 0.01 85 1017.1
20260901173732 64 292 3.0 6.0 0.00 0.01 0.01 84 1017.1
20260901173232 64 292 1.0 5.0 0.00 0.01 0.01 83 1017.1
20260901172732 64 287 1.0 6.0 0.00 0.01 0.01 82 1017.1
20260901171734 64 286 4.0 8.0 0.00 0.01 0.01 81 1017.1
20260901170734 64 297 2.0 8.0 0.00 0.01 0.01 80 1017.0
20260901170233 64 300 1.0 7.0 0.00 0.01 0.01 80 1017.0
20260901165733 64 271 2.0 9.0 0.00 0.01 0.01 80 1016.9
20260901165233 64 9 1.0 6.0 0.00 0.01 0.01 80 1017.0
20260901164734 64 278 2.0 8.0 0.00 0.01 0.01 80 1017.0
20260901164234 64 307 2.0 6.0 0.00 0.01 0.01 80 1017.0
20260901163733 64 303 3.0 10.0 0.00 0.01 0.01 80 1017.0
20260901163233 64 293 3.0 8.0 0.00 0.01 0.01 79 1016.9
20260901162734 64 280 4.0 8.0 0.00 0.01 0.01 81 1017.0
20260901162234 64 276 3.0 9.0 0.00 0.01 0.01 85 1017.1
20260901161733 64 303 3.0 8.0 0.00 0.01 0.01 87 1017.1
20260901161233 64 281 3.0 9.0 0.00 0.01 0.01 87 1017.2
20260901160733 64 297 5.0 9.0 0.00 0.01 0.01 87 1017.1
20260901160233 65 318 2.0 12.0 0.00 0.01 0.01 87 1017.1
20260901155733 65 298 4.0 8.0 0.00 0.01 0.01 87 1017.2
20260901154733 65 306 3.0 12.0 0.00 0.01 0.01 86 1017.3
20260901154233 65 291 4.0 10.0 0.00 0.01 0.01 86 1017.1
20260901153735 65 302 4.0 7.0 0.00 0.01 0.01 86 1017.1
20260901153234 65 295 5.0 9.0 0.00 0.01 0.01 85 1017.1
20260901152735 65 285 3.0 6.0 0.00 0.01 0.01 83 1017.2
20260901152234 65 288 5.0 9.0 0.00 0.01 0.01 81 1017.3
20260901151734 65 320 3.0 8.0 0.00 0.01 0.01 79 1017.3
20260901150734 65 295 2.0 8.0 0.00 0.01 0.01 82 1017.4
20260901150233 65 298 4.0 10.0 0.00 0.01 0.01 83 1017.3
20260901145233 66 301 3.0 8.0 0.00 0.01 0.01 84 1017.6
20260901144235 66 298 4.0 12.0 0.00 0.01 0.01 83 1017.8
20260901143733 66 295 2.0 14.0 0.00 0.01 0.01 85 1017.8
20260901143234 65 301 5.0 14.0 0.00 0.01 0.01 86 1017.7
20260901142734 65 303 5.0 12.0 0.00 0.01 0.01 86 1017.8
20260901142234 65 295 5.0 12.0 0.00 0.01 0.01 86 1017.9
20260901141736 65 304 4.0 10.0 0.01 0.01 0.01 87 1017.8
20260901141234 65 301 4.0 9.0 0.01 0.01 0.01 88 1017.8
20260901140734 65 293 3.0 7.0 0.01 0.01 0.01 88 1017.9
20260901140234 64 285 3.0 8.0 0.01 0.01 0.01 88 1017.7
20260901135734 64 286 2.0 6.0 0.01 0.01 0.01 89 1017.7
20260901135234 64 35 2.0 6.0 0.01 0.01 0.01 90 1017.8
20260901134235 63 251 1.0 3.0 0.01 0.01 0.01 90 1017.8
20260901133734 63 309 2.0 6.0 0.01 0.01 0.01 90 1017.9
20260901133234 62 288 1.0 3.0 0.01 0.01 0.01 91 1018.0
20260901132235 62 289 1.0 3.0 0.01 0.01 0.01 88 1018.2
20260901131235 63 307 2.0 15.0 0.00 0.00 0.00 84 1018.3
20260901130735 65 295 9.0 17.0 0.00 0.00 0.00 81 1018.3
20260901130236 66 306 3.0 9.0 0.00 0.00 0.00 81 1018.2
20260901125235 66 299 4.0 16.0 0.00 0.00 0.00 79 1018.0
20260901124735 66 314 3.0 10.0 0.00 0.00 0.00 79 1017.9
20260901124235 66 291 6.0 14.0 0.00 0.00 0.00 78 1017.9
20260901123236 67 308 5.0 14.0 0.00 0.00 0.00 79 1017.8
20260901122735 67 288 5.0 13.0 0.00 0.00 0.00 79 1017.8
20260901122236 67 288 7.0 14.0 0.00 0.00 0.00 78 1017.8
20260901121735 67 331 6.0 13.0 0.00 0.00 0.00 77 1017.8
20260901120735 67 338 4.0 8.0 0.00 0.00 0.00 78 1017.8
20260901120236 67 300 3.0 12.0 0.00 0.00 0.00 80 1017.8
20260901115735 67 303 5.0 9.0 0.00 0.00 0.00 79 1017.8
20260901115235 66 291 5.0 16.0 0.00 0.00 0.00 80 1017.7
20260901114236 67 297 5.0 9.0 0.00 0.00 0.00 80 1017.8
20260901113735 66 292 5.0 10.0 0.00 0.00 0.00 80 1017.8
20260901113235 66 306 5.0 12.0 0.00 0.00 0.00 79 1017.8
20260901112735 67 325 1.0 13.0 0.00 0.00 0.00 79 1017.9
20260901112235 67 289 3.0 7.0 0.00 0.00 0.00 79 1017.8
20260901111237 67 197 2.0 7.0 0.00 0.00 0.00 79 1017.8
20260901110737 67 303 3.0 6.0 0.00 0.00 0.00 78 1017.8